| time (UTC) | temp F | wind direction | speed MPH | gust MPH | rain 1hr in | rain 24hr in | rain mn in | humidity % | barometer mb |
| 20260507222407 | 42 | 52 | 0.0 | 4.0 | 0.00 | 0.00 | 0.00 | 79 | 1013.3 |
| 20260507222107 | 43 | 49 | 1.0 | 6.0 | 0.00 | 0.00 | 0.00 | 80 | 1013.3 |
| 20260507221829 | 43 | 63 | 2.0 | 11.0 | 0.00 | 0.00 | 0.00 | 80 | 1013.5 |
| 20260507221507 | 43 | 72 | 3.0 | 11.0 | 0.00 | 0.00 | 0.00 | 79 | 1013.3 |
| 20260507221228 | 43 | 74 | 3.0 | 11.0 | 0.00 | 0.00 | 0.00 | 79 | 1013.2 |
| 20260507220907 | 43 | 83 | 3.0 | 11.0 | 0.00 | 0.00 | 0.00 | 79 | 1013.4 |
| 20260507220607 | 43 | 82 | 3.0 | 11.0 | 0.00 | 0.00 | 0.00 | 79 | 1013.1 |
| 20260507220307 | 43 | 81 | 4.0 | 11.0 | 0.00 | 0.00 | 0.00 | 79 | 1013.4 |
| 20260507220022 | 43 | 81 | 5.0 | 11.0 | 0.00 | 0.00 | 0.00 | 79 | 1013.3 |
| 20260507215707 | 43 | 79 | 5.0 | 11.0 | 0.00 | 0.00 | 0.00 | 78 | 1013.3 |
| 20260507215407 | 43 | 75 | 5.0 | 14.0 | 0.00 | 0.00 | 0.00 | 82 | 1013.0 |
| 20260507215107 | 43 | 72 | 4.0 | 14.0 | 0.00 | 0.00 | 0.00 | 82 | 1012.9 |
| 20260507214807 | 43 | 71 | 5.0 | 14.0 | 0.00 | 0.00 | 0.00 | 82 | 1013.2 |
| 20260507214508 | 43 | 69 | 5.0 | 11.0 | 0.00 | 0.00 | 0.00 | 82 | 1013.1 |
| 20260507214228 | 43 | 76 | 5.0 | 11.0 | 0.00 | 0.00 | 0.00 | 82 | 1013.3 |
| 20260507213908 | 43 | 81 | 4.0 | 11.0 | 0.00 | 0.00 | 0.00 | 82 | 1013.1 |
| 20260507213629 | 42 | 86 | 3.0 | 11.0 | 0.00 | 0.00 | 0.00 | 82 | 1013.2 |
| 20260507213308 | 42 | 93 | 2.0 | 8.0 | 0.00 | 0.00 | 0.00 | 84 | 1013.1 |
| 20260507213007 | 41 | 98 | 0.0 | 2.0 | 0.00 | 0.00 | 0.00 | 86 | 1013.1 |
| 20260507212707 | 41 | 104 | 0.0 | 2.0 | 0.00 | 0.00 | 0.00 | 86 | 1013.1 |
| 20260507212407 | 41 | 0 | 0.0 | 2.0 | 0.00 | 0.00 | 0.00 | 85 | 1013.1 |
| 20260507212107 | 42 | 340 | 0.0 | 4.0 | 0.00 | 0.00 | 0.00 | 83 | 1013.2 |
| 20260507211807 | 42 | 343 | 1.0 | 4.0 | 0.00 | 0.00 | 0.00 | 82 | 1013.1 |
| 20260507211529 | 42 | 351 | 1.0 | 4.0 | 0.00 | 0.00 | 0.00 | 82 | 1013.0 |
| 20260507211208 | 42 | 39 | 1.0 | 4.0 | 0.00 | 0.00 | 0.00 | 82 | 1013.1 |
| 20260507210907 | 42 | 86 | 2.0 | 7.0 | 0.00 | 0.00 | 0.00 | 83 | 1013.1 |
| 20260507210609 | 43 | 94 | 3.0 | 7.0 | 0.00 | 0.00 | 0.00 | 82 | 1013.0 |
| 20260507210307 | 43 | 85 | 3.0 | 8.0 | 0.00 | 0.00 | 0.00 | 81 | 1013.0 |
| 20260507210007 | 43 | 78 | 2.0 | 8.0 | 0.00 | 0.00 | 0.00 | 80 | 1013.1 |
| 20260507205707 | 42 | 45 | 1.0 | 8.0 | 0.00 | 0.00 | 0.00 | 79 | 1013.0 |
| 20260507205407 | 42 | 7 | 1.0 | 8.0 | 0.00 | 0.00 | 0.00 | 81 | 1013.1 |
| 20260507205107 | 42 | 355 | 1.0 | 6.0 | 0.00 | 0.00 | 0.00 | 84 | 1013.0 |
| 20260507204829 | 43 | 349 | 2.0 | 6.0 | 0.00 | 0.00 | 0.00 | 83 | 1012.9 |
| 20260507204508 | 43 | 353 | 2.0 | 6.0 | 0.00 | 0.00 | 0.00 | 83 | 1012.9 |
| 20260507204208 | 42 | 352 | 2.0 | 6.0 | 0.00 | 0.00 | 0.00 | 84 | 1012.9 |
| 20260507203907 | 43 | 360 | 2.0 | 6.0 | 0.00 | 0.00 | 0.00 | 84 | 1012.8 |
| 20260507203628 | 43 | 359 | 2.0 | 6.0 | 0.00 | 0.00 | 0.00 | 84 | 1012.8 |
| 20260507203307 | 43 | 28 | 1.0 | 4.0 | 0.00 | 0.00 | 0.00 | 84 | 1012.8 |
| 20260507203007 | 43 | 51 | 1.0 | 4.0 | 0.00 | 0.00 | 0.00 | 83 | 1013.1 |
| 20260507202729 | 43 | 62 | 1.0 | 4.0 | 0.00 | 0.00 | 0.00 | 82 | 1013.0 |
| 20260507202428 | 43 | 76 | 1.0 | 6.0 | 0.00 | 0.00 | 0.00 | 81 | 1013.1 |
| 20260507202107 | 44 | 81 | 2.0 | 9.0 | 0.00 | 0.00 | 0.00 | 81 | 1013.2 |
| 20260507201829 | 44 | 85 | 3.0 | 11.0 | 0.00 | 0.00 | 0.00 | 81 | 1013.0 |
| 20260507201528 | 44 | 86 | 5.0 | 11.0 | 0.00 | 0.00 | 0.00 | 80 | 1013.2 |
| 20260507201207 | 44 | 86 | 6.0 | 11.0 | 0.00 | 0.00 | 0.00 | 79 | 1013.0 |
| 20260507200907 | 44 | 93 | 5.0 | 13.0 | 0.00 | 0.00 | 0.00 | 79 | 1013.0 |
| 20260507200608 | 43 | 95 | 5.0 | 14.0 | 0.00 | 0.00 | 0.00 | 80 | 1012.9 |
| 20260507200308 | 44 | 102 | 5.0 | 14.0 | 0.00 | 0.00 | 0.00 | 80 | 1012.9 |
| 20260507200007 | 44 | 100 | 5.0 | 14.0 | 0.00 | 0.00 | 0.00 | 80 | 1013.0 |
| 20260507195707 | 43 | 102 | 3.0 | 11.0 | 0.00 | 0.00 | 0.00 | 81 | 1013.1 |
| 20260507195429 | 43 | 100 | 1.0 | 9.0 | 0.00 | 0.00 | 0.00 | 81 | 1012.9 |
| 20260507195128 | 43 | 94 | 1.0 | 9.0 | 0.00 | 0.00 | 0.00 | 82 | 1012.9 |
| 20260507194807 | 43 | 79 | 1.0 | 9.0 | 0.00 | 0.00 | 0.00 | 82 | 1012.6 |
| 20260507194508 | 42 | 59 | 1.0 | 9.0 | 0.00 | 0.00 | 0.00 | 84 | 1012.7 |
| 20260507194207 | 42 | 359 | 0.0 | 4.0 | 0.00 | 0.00 | 0.00 | 85 | 1012.8 |
| 20260507193908 | 42 | 348 | 0.0 | 2.0 | 0.00 | 0.00 | 0.00 | 85 | 1012.5 |
| 20260507193629 | 42 | 2 | 0.0 | 2.0 | 0.00 | 0.00 | 0.00 | 85 | 1012.7 |
| 20260507193307 | 43 | 329 | 0.0 | 2.0 | 0.00 | 0.00 | 0.00 | 84 | 1012.4 |
| 20260507193007 | 43 | 332 | 1.0 | 2.0 | 0.00 | 0.00 | 0.00 | 83 | 1012.5 |
| 20260507192729 | 43 | 329 | 1.0 | 2.0 | 0.00 | 0.00 | 0.00 | 83 | 1012.2 |
| 20260507192407 | 44 | 328 | 1.0 | 2.0 | 0.00 | 0.00 | 0.00 | 83 | 1012.2 |
| 20260507192128 | 44 | 327 | 1.0 | 2.0 | 0.00 | 0.00 | 0.00 | 82 | 1012.2 |
| 20260507191829 | 43 | 327 | 1.0 | 2.0 | 0.00 | 0.00 | 0.00 | 83 | 1012.1 |
| 20260507191507 | 43 | 335 | 0.0 | 2.0 | 0.00 | 0.00 | 0.00 | 83 | 1012.2 |
| 20260507191208 | 43 | 95 | 0.0 | 2.0 | 0.00 | 0.00 | 0.00 | 82 | 1012.1 |
| 20260507190907 | 44 | 130 | 1.0 | 6.0 | 0.00 | 0.00 | 0.00 | 80 | 1012.3 |
| 20260507190607 | 44 | 119 | 2.0 | 6.0 | 0.00 | 0.00 | 0.00 | 80 | 1012.0 |
| 20260507190307 | 44 | 115 | 3.0 | 9.0 | 0.00 | 0.00 | 0.00 | 79 | 1012.1 |
| 20260507190028 | 44 | 108 | 4.0 | 9.0 | 0.00 | 0.00 | 0.00 | 79 | 1012.1 |
| 20260507185707 | 44 | 102 | 5.0 | 9.0 | 0.00 | 0.00 | 0.00 | 78 | 1012.1 |
| 20260507185428 | 44 | 96 | 4.0 | 9.0 | 0.00 | 0.00 | 0.00 | 77 | 1012.0 |
| 20260507185129 | 45 | 93 | 3.0 | 8.0 | 0.00 | 0.00 | 0.00 | 77 | 1011.9 |
| 20260507184808 | 44 | 90 | 2.0 | 8.0 | 0.00 | 0.00 | 0.00 | 77 | 1012.2 |
| 20260507184507 | 44 | 26 | 0.0 | 4.0 | 0.00 | 0.00 | 0.00 | 80 | 1011.8 |
| 20260507184207 | 44 | 56 | 2.0 | 8.0 | 0.00 | 0.00 | 0.00 | 79 | 1011.9 |
| 20260507183907 | 44 | 81 | 3.0 | 11.0 | 0.00 | 0.00 | 0.00 | 78 | 1011.9 |
| 20260507183607 | 45 | 89 | 3.0 | 11.0 | 0.00 | 0.00 | 0.00 | 79 | 1012.1 |
| 20260507183308 | 45 | 91 | 3.0 | 17.0 | 0.00 | 0.00 | 0.00 | 77 | 1012.0 |
| 20260507183007 | 45 | 89 | 5.0 | 17.0 | 0.00 | 0.00 | 0.00 | 77 | 1011.9 |
| 20260507182707 | 45 | 82 | 5.0 | 17.0 | 0.00 | 0.00 | 0.00 | 78 | 1012.1 |
| 20260507182408 | 45 | 81 | 5.0 | 17.0 | 0.00 | 0.00 | 0.00 | 78 | 1011.9 |
| 20260507182128 | 45 | 72 | 2.0 | 14.0 | 0.00 | 0.00 | 0.00 | 77 | 1011.9 |
| 20260507181808 | 45 | 84 | 2.0 | 13.0 | 0.00 | 0.00 | 0.00 | 80 | 1011.9 |
| 20260507181507 | 45 | 92 | 4.0 | 14.0 | 0.00 | 0.00 | 0.00 | 80 | 1011.6 |
| 20260507181207 | 45 | 91 | 4.0 | 14.0 | 0.00 | 0.00 | 0.00 | 78 | 1011.7 |
| 20260507180907 | 45 | 90 | 3.0 | 14.0 | 0.00 | 0.00 | 0.00 | 77 | 1011.6 |
| 20260507180607 | 45 | 84 | 1.0 | 9.0 | 0.00 | 0.00 | 0.00 | 78 | 1011.7 |
| 20260507180307 | 45 | 92 | 2.0 | 9.0 | 0.00 | 0.00 | 0.00 | 80 | 1011.6 |
| 20260507180008 | 45 | 91 | 2.0 | 9.0 | 0.00 | 0.00 | 0.00 | 79 | 1011.6 |
| 20260507175707 | 46 | 86 | 5.0 | 15.0 | 0.00 | 0.00 | 0.00 | 78 | 1011.6 |
| 20260507175428 | 46 | 84 | 8.0 | 17.0 | 0.00 | 0.00 | 0.00 | 77 | 1011.7 |
| 20260507175108 | 46 | 83 | 12.0 | 21.0 | 0.00 | 0.00 | 0.00 | 78 | 1011.5 |
| 20260507174807 | 46 | 85 | 13.0 | 21.0 | 0.00 | 0.00 | 0.00 | 76 | 1011.5 |
| 20260507174508 | 46 | 88 | 13.0 | 21.0 | 0.00 | 0.00 | 0.00 | 78 | 1011.4 |
| 20260507174208 | 46 | 90 | 14.0 | 23.0 | 0.00 | 0.00 | 0.00 | 78 | 1011.4 |
| 20260507173908 | 47 | 90 | 16.0 | 27.0 | 0.00 | 0.00 | 0.00 | 77 | 1011.3 |
| 20260507173607 | 47 | 90 | 15.0 | 27.0 | 0.00 | 0.00 | 0.00 | 76 | 1011.5 |
| 20260507173328 | 47 | 89 | 14.0 | 27.0 | 0.00 | 0.00 | 0.00 | 75 | 1011.3 |
| 20260507173028 | 47 | 90 | 12.0 | 27.0 | 0.00 | 0.00 | 0.00 | 76 | 1011.3 |
| 20260507172707 | 48 | 86 | 10.0 | 21.0 | 0.00 | 0.00 | 0.00 | 75 | 1011.2 |
| 20260507172428 | 48 | 88 | 10.0 | 21.0 | 0.00 | 0.00 | 0.00 | 71 | 1011.2 |
| 20260507172108 | 48 | 90 | 12.0 | 21.0 | 0.00 | 0.00 | 0.00 | 73 | 1011.3 |
| 20260507171807 | 48 | 95 | 12.0 | 23.0 | 0.00 | 0.00 | 0.00 | 71 | 1011.2 |
| 20260507171507 | 48 | 93 | 12.0 | 23.0 | 0.00 | 0.00 | 0.00 | 72 | 1011.2 |
| 20260507171207 | 49 | 92 | 11.0 | 23.0 | 0.00 | 0.00 | 0.00 | 72 | 1011.2 |
| 20260507170907 | 49 | 87 | 11.0 | 18.0 | 0.00 | 0.00 | 0.00 | 70 | 1011.2 |
| 20260507170607 | 49 | 86 | 11.0 | 20.0 | 0.00 | 0.00 | 0.00 | 70 | 1011.3 |
| 20260507170328 | 49 | 86 | 11.0 | 20.0 | 0.00 | 0.00 | 0.00 | 69 | 1011.0 |
| 20260507170028 | 49 | 91 | 10.0 | 20.0 | 0.00 | 0.00 | 0.00 | 69 | 1011.0 |
| 20260507165707 | 49 | 92 | 10.0 | 21.0 | 0.00 | 0.00 | 0.00 | 71 | 1011.0 |
| 20260507165407 | 50 | 94 | 10.0 | 21.0 | 0.00 | 0.00 | 0.00 | 70 | 1011.0 |
| 20260507165108 | 49 | 96 | 10.0 | 21.0 | 0.00 | 0.00 | 0.00 | 72 | 1011.1 |
| 20260507164828 | 50 | 104 | 8.0 | 18.0 | 0.00 | 0.00 | 0.00 | 71 | 1011.0 |
| 20260507164507 | 50 | 125 | 5.0 | 14.0 | 0.00 | 0.00 | 0.00 | 70 | 1011.1 |
| 20260507164207 | 53 | 140 | 4.0 | 13.0 | 0.00 | 0.00 | 0.00 | 66 | 1011.0 |
| 20260507163907 | 53 | 172 | 3.0 | 11.0 | 0.00 | 0.00 | 0.00 | 65 | 1011.3 |
| 20260507163607 | 53 | 178 | 3.0 | 8.0 | 0.00 | 0.00 | 0.00 | 68 | 1011.1 |
| 20260507163307 | 53 | 182 | 3.0 | 8.0 | 0.00 | 0.00 | 0.00 | 66 | 1011.2 |
| 20260507163007 | 53 | 181 | 2.0 | 8.0 | 0.00 | 0.00 | 0.00 | 65 | 1011.3 |
| 20260507162707 | 54 | 172 | 1.0 | 4.0 | 0.00 | 0.00 | 0.00 | 64 | 1011.1 |
| 20260507162407 | 54 | 139 | 1.0 | 7.0 | 0.00 | 0.00 | 0.00 | 64 | 1011.1 |
| 20260507162107 | 53 | 133 | 2.0 | 8.0 | 0.00 | 0.00 | 0.00 | 65 | 1011.2 |
| 20260507161807 | 52 | 116 | 3.0 | 13.0 | 0.00 | 0.00 | 0.00 | 69 | 1011.0 |
| 20260507161528 | 52 | 107 | 4.0 | 13.0 | 0.00 | 0.00 | 0.00 | 70 | 1011.1 |
| 20260507161207 | 51 | 103 | 6.0 | 17.0 | 0.00 | 0.00 | 0.00 | 69 | 1011.1 |
| 20260507160929 | 51 | 105 | 7.0 | 17.0 | 0.00 | 0.00 | 0.00 | 72 | 1011.0 |
| 20260507160628 | 50 | 113 | 7.0 | 17.0 | 0.00 | 0.00 | 0.00 | 72 | 1011.1 |
| 20260507160328 | 51 | 120 | 7.0 | 16.0 | 0.00 | 0.00 | 0.00 | 69 | 1011.0 |
| 20260507160007 | 51 | 118 | 7.0 | 15.0 | 0.00 | 0.00 | 0.00 | 71 | 1011.1 |
| 20260507155706 | 50 | 122 | 7.0 | 15.0 | 0.00 | 0.00 | 0.00 | 72 | 1010.8 |
| 20260507155407 | 50 | 124 | 8.0 | 15.0 | 0.00 | 0.00 | 0.00 | 72 | 1010.9 |
| 20260507155106 | 51 | 132 | 7.0 | 14.0 | 0.00 | 0.00 | 0.00 | 71 | 1010.9 |
| 20260507154808 | 49 | 124 | 6.0 | 14.0 | 0.00 | 0.00 | 0.00 | 71 | 1010.9 |
| 20260507154507 | 49 | 116 | 7.0 | 15.0 | 0.00 | 0.00 | 0.00 | 70 | 1011.0 |
| 20260507154207 | 49 | 106 | 7.0 | 15.0 | 0.00 | 0.00 | 0.00 | 73 | 1010.7 |
| 20260507153907 | 49 | 112 | 8.0 | 18.0 | 0.00 | 0.00 | 0.00 | 72 | 1011.1 |
| 20260507153607 | 50 | 104 | 8.0 | 18.0 | 0.00 | 0.00 | 0.00 | 72 | 1010.9 |
| 20260507153328 | 50 | 106 | 8.0 | 18.0 | 0.00 | 0.00 | 0.00 | 70 | 1010.8 |
| 20260507153007 | 50 | 108 | 9.0 | 21.0 | 0.00 | 0.00 | 0.00 | 71 | 1011.1 |
| 20260507152707 | 50 | 108 | 10.0 | 21.0 | 0.00 | 0.00 | 0.00 | 70 | 1010.9 |
| 20260507152407 | 50 | 112 | 10.0 | 21.0 | 0.00 | 0.00 | 0.00 | 69 | 1010.9 |
| 20260507152107 | 51 | 107 | 9.0 | 21.0 | 0.00 | 0.00 | 0.00 | 68 | 1011.2 |
| 20260507151828 | 50 | 117 | 6.0 | 16.0 | 0.00 | 0.00 | 0.00 | 70 | 1010.9 |
| 20260507151507 | 49 | 116 | 7.0 | 17.0 | 0.00 | 0.00 | 0.00 | 70 | 1010.9 |
| 20260507151228 | 49 | 112 | 7.0 | 22.0 | 0.00 | 0.00 | 0.00 | 70 | 1010.9 |
| 20260507150908 | 49 | 115 | 7.0 | 22.0 | 0.00 | 0.00 | 0.00 | 72 | 1010.8 |
| 20260507150607 | 49 | 109 | 7.0 | 22.0 | 0.00 | 0.00 | 0.00 | 71 | 1010.7 |
| 20260507150307 | 51 | 115 | 6.0 | 21.0 | 0.00 | 0.00 | 0.00 | 70 | 1010.7 |
| 20260507150007 | 50 | 113 | 7.0 | 21.0 | 0.00 | 0.00 | 0.00 | 69 | 1010.9 |
| 20260507145707 | 49 | 118 | 7.0 | 15.0 | 0.00 | 0.00 | 0.00 | 71 | 1011.0 |
| 20260507145407 | 49 | 117 | 6.0 | 15.0 | 0.00 | 0.00 | 0.00 | 72 | 1010.7 |
| 20260507145108 | 50 | 135 | 5.0 | 13.0 | 0.00 | 0.00 | 0.00 | 69 | 1011.0 |
| 20260507144807 | 52 | 132 | 5.0 | 14.0 | 0.00 | 0.00 | 0.00 | 67 | 1010.9 |
| 20260507144507 | 52 | 121 | 6.0 | 18.0 | 0.00 | 0.00 | 0.00 | 66 | 1010.9 |
| 20260507144208 | 51 | 105 | 8.0 | 21.0 | 0.00 | 0.00 | 0.00 | 68 | 1010.8 |
| 20260507143907 | 51 | 101 | 9.0 | 21.0 | 0.00 | 0.00 | 0.00 | 70 | 1011.0 |
| 20260507143607 | 51 | 109 | 8.0 | 21.0 | 0.00 | 0.00 | 0.00 | 70 | 1011.0 |
| 20260507143307 | 51 | 115 | 6.0 | 14.0 | 0.00 | 0.00 | 0.00 | 68 | 1010.9 |
| 20260507143007 | 51 | 120 | 6.0 | 14.0 | 0.00 | 0.00 | 0.00 | 67 | 1011.1 |
| 20260507142707 | 51 | 117 | 7.0 | 16.0 | 0.00 | 0.00 | 0.00 | 67 | 1011.0 |
| 20260507142428 | 50 | 108 | 7.0 | 16.0 | 0.00 | 0.00 | 0.00 | 68 | 1010.9 |
| 20260507142107 | 51 | 110 | 6.0 | 16.0 | 0.00 | 0.00 | 0.00 | 71 | 1011.0 |
| 20260507141807 | 51 | 116 | 6.0 | 16.0 | 0.00 | 0.00 | 0.00 | 63 | 1011.0 |
| 20260507141507 | 50 | 124 | 5.0 | 13.0 | 0.00 | 0.00 | 0.00 | 72 | 1010.7 |
| 20260507141207 | 50 | 131 | 5.0 | 13.0 | 0.00 | 0.00 | 0.00 | 68 | 1011.0 |
| 20260507140928 | 51 | 137 | 5.0 | 13.0 | 0.00 | 0.00 | 0.00 | 66 | 1011.0 |
| 20260507140607 | 52 | 135 | 4.0 | 11.0 | 0.00 | 0.00 | 0.00 | 65 | 1010.9 |
| 20260507140307 | 52 | 144 | 4.0 | 15.0 | 0.00 | 0.00 | 0.00 | 65 | 1011.0 |
| 20260507140007 | 52 | 136 | 5.0 | 15.0 | 0.00 | 0.00 | 0.00 | 65 | 1010.8 |
| 20260507135707 | 53 | 135 | 5.0 | 15.0 | 0.00 | 0.00 | 0.00 | 62 | 1010.9 |
| 20260507135407 | 53 | 125 | 5.0 | 11.0 | 0.00 | 0.00 | 0.00 | 64 | 1010.9 |
| 20260507135107 | 53 | 117 | 5.0 | 11.0 | 0.00 | 0.00 | 0.00 | 62 | 1010.9 |
| 20260507134807 | 53 | 127 | 6.0 | 14.0 | 0.00 | 0.00 | 0.00 | 65 | 1011.0 |
| 20260507134508 | 53 | 123 | 6.0 | 14.0 | 0.00 | 0.00 | 0.00 | 66 | 1010.9 |
| 20260507134207 | 53 | 118 | 7.0 | 15.0 | 0.00 | 0.00 | 0.00 | 62 | 1011.0 |
| 20260507133907 | 51 | 115 | 7.0 | 15.0 | 0.00 | 0.00 | 0.00 | 63 | 1011.1 |
| 20260507133607 | 51 | 110 | 7.0 | 15.0 | 0.00 | 0.00 | 0.00 | 64 | 1011.0 |
| 20260507133307 | 51 | 125 | 6.0 | 13.0 | 0.00 | 0.00 | 0.00 | 64 | 1011.0 |
| 20260507133007 | 51 | 143 | 7.0 | 13.0 | 0.00 | 0.00 | 0.00 | 62 | 1011.1 |
| 20260507132707 | 54 | 147 | 7.0 | 13.0 | 0.00 | 0.00 | 0.00 | 62 | 1011.1 |
| 20260507132406 | 53 | 138 | 7.0 | 14.0 | 0.00 | 0.00 | 0.00 | 59 | 1010.9 |
| 20260507132106 | 53 | 127 | 6.0 | 14.0 | 0.00 | 0.00 | 0.00 | 62 | 1011.1 |
| 20260507131807 | 52 | 144 | 5.0 | 14.0 | 0.00 | 0.00 | 0.00 | 61 | 1011.0 |
| 20260507131507 | 52 | 149 | 5.0 | 14.0 | 0.00 | 0.00 | 0.00 | 61 | 1011.1 |
| 20260507131207 | 50 | 129 | 5.0 | 14.0 | 0.00 | 0.00 | 0.00 | 61 | 1011.1 |
| 20260507130907 | 52 | 127 | 5.0 | 14.0 | 0.00 | 0.00 | 0.00 | 61 | 1010.9 |
| 20260507130607 | 53 | 110 | 5.0 | 15.0 | 0.00 | 0.00 | 0.00 | 59 | 1011.1 |
| 20260507130307 | 54 | 107 | 7.0 | 21.0 | 0.00 | 0.00 | 0.00 | 58 | 1011.3 |
| 20260507130007 | 53 | 103 | 8.0 | 21.0 | 0.00 | 0.00 | 0.00 | 61 | 1011.2 |
| 20260507125707 | 52 | 106 | 9.0 | 21.0 | 0.00 | 0.00 | 0.00 | 61 | 1011.0 |
| 20260507125407 | 52 | 107 | 8.0 | 20.0 | 0.00 | 0.00 | 0.00 | 67 | 1011.2 |
| 20260507125107 | 52 | 120 | 7.0 | 17.0 | 0.00 | 0.00 | 0.00 | 62 | 1011.1 |
| 20260507124807 | 52 | 117 | 6.0 | 15.0 | 0.00 | 0.00 | 0.00 | 61 | 1010.9 |
| 20260507124507 | 53 | 123 | 6.0 | 20.0 | 0.00 | 0.00 | 0.00 | 63 | 1011.0 |
| 20260507124207 | 53 | 122 | 6.0 | 20.0 | 0.00 | 0.00 | 0.00 | 58 | 1011.0 |
| 20260507123906 | 52 | 124 | 7.0 | 20.0 | 0.00 | 0.00 | 0.00 | 58 | 1011.0 |
| 20260507123607 | 53 | 122 | 6.0 | 20.0 | 0.00 | 0.00 | 0.00 | 60 | 1011.2 |
| 20260507123307 | 54 | 126 | 6.0 | 14.0 | 0.00 | 0.00 | 0.00 | 58 | 1011.1 |
| 20260507123007 | 53 | 112 | 7.0 | 17.0 | 0.00 | 0.00 | 0.00 | 57 | 1011.1 |
| 20260507122708 | 52 | 126 | 7.0 | 17.0 | 0.00 | 0.00 | 0.00 | 62 | 1011.3 |
| 20260507122428 | 52 | 129 | 6.0 | 17.0 | 0.00 | 0.00 | 0.00 | 60 | 1011.1 |
| 20260507122128 | 53 | 147 | 5.0 | 17.0 | 0.00 | 0.00 | 0.00 | 57 | 1011.0 |
| 20260507121806 | 54 | 161 | 5.0 | 11.0 | 0.00 | 0.00 | 0.00 | 53 | 1011.2 |
| 20260507121507 | 54 | 167 | 4.0 | 11.0 | 0.00 | 0.00 | 0.00 | 54 | 1011.2 |
| 20260507121206 | 53 | 151 | 5.0 | 15.0 | 0.00 | 0.00 | 0.00 | 55 | 1011.0 |
| 20260507120906 | 53 | 136 | 6.0 | 16.0 | 0.00 | 0.00 | 0.00 | 55 | 1011.4 |
| 20260507120607 | 51 | 133 | 7.0 | 17.0 | 0.00 | 0.00 | 0.00 | 59 | 1011.1 |
| 20260507120306 | 51 | 139 | 6.0 | 17.0 | 0.00 | 0.00 | 0.00 | 56 | 1011.2 |
| 20260507120028 | 52 | 134 | 6.0 | 17.0 | 0.00 | 0.00 | 0.00 | 59 | 1011.0 |
| 20260507115707 | 53 | 121 | 8.0 | 17.0 | 0.00 | 0.00 | 0.00 | 55 | 1011.2 |
| 20260507115407 | 52 | 107 | 8.0 | 17.0 | 0.00 | 0.00 | 0.00 | 56 | 1011.1 |
| 20260507115107 | 51 | 109 | 8.0 | 17.0 | 0.00 | 0.00 | 0.00 | 58 | 1011.0 |
| 20260507114806 | 51 | 113 | 7.0 | 16.0 | 0.00 | 0.00 | 0.00 | 61 | 1010.9 |
| 20260507114506 | 52 | 115 | 7.0 | 15.0 | 0.00 | 0.00 | 0.00 | 56 | 1011.2 |
| 20260507114207 | 52 | 111 | 7.0 | 16.0 | 0.00 | 0.00 | 0.00 | 57 | 1011.1 |
| 20260507113906 | 51 | 109 | 7.0 | 16.0 | 0.00 | 0.00 | 0.00 | 55 | 1011.1 |
| 20260507113606 | 51 | 115 | 7.0 | 16.0 | 0.00 | 0.00 | 0.00 | 57 | 1011.1 |
| 20260507113328 | 51 | 120 | 7.0 | 16.0 | 0.00 | 0.00 | 0.00 | 60 | 1011.2 |
| 20260507113007 | 51 | 127 | 7.0 | 15.0 | 0.00 | 0.01 | 0.00 | 58 | 1011.2 |
| 20260507112727 | 51 | 117 | 8.0 | 15.0 | 0.00 | 0.01 | 0.00 | 57 | 1011.4 |
| 20260507112406 | 51 | 117 | 8.0 | 15.0 | 0.00 | 0.01 | 0.00 | 59 | 1011.2 |
| 20260507112107 | 51 | 109 | 8.0 | 15.0 | 0.00 | 0.01 | 0.00 | 58 | 1011.4 |
| 20260507111807 | 51 | 113 | 7.0 | 14.0 | 0.00 | 0.02 | 0.00 | 56 | 1011.4 |
| 20260507111528 | 51 | 117 | 6.0 | 15.0 | 0.00 | 0.02 | 0.00 | 57 | 1011.3 |
| 20260507111207 | 51 | 117 | 7.0 | 15.0 | 0.00 | 0.02 | 0.00 | 53 | 1011.3 |
| 20260507110906 | 52 | 122 | 6.0 | 15.0 | 0.00 | 0.02 | 0.00 | 57 | 1011.4 |
| 20260507110607 | 52 | 115 | 7.0 | 15.0 | 0.00 | 0.02 | 0.00 | 56 | 1011.1 |
| 20260507110307 | 51 | 116 | 6.0 | 14.0 | 0.00 | 0.02 | 0.00 | 61 | 1011.2 |
| 20260507110007 | 52 | 122 | 6.0 | 18.0 | 0.00 | 0.02 | 0.00 | 58 | 1011.2 |
| 20260507105707 | 52 | 136 | 5.0 | 18.0 | 0.00 | 0.04 | 0.00 | 59 | 1011.1 |
| 20260507105407 | 51 | 132 | 5.0 | 18.0 | 0.00 | 0.05 | 0.00 | 61 | 1011.2 |
| 20260507105128 | 52 | 129 | 5.0 | 18.0 | 0.00 | 0.06 | 0.00 | 59 | 1011.2 |
| 20260507104807 | 52 | 122 | 5.0 | 16.0 | 0.00 | 0.07 | 0.00 | 60 | 1011.2 |
| 20260507104506 | 51 | 126 | 5.0 | 16.0 | 0.00 | 0.08 | 0.00 | 63 | 1011.2 |
| 20260507104206 | 51 | 129 | 4.0 | 16.0 | 0.00 | 0.09 | 0.00 | 54 | 1011.3 |
| 20260507103907 | 53 | 143 | 4.0 | 9.0 | 0.00 | 0.09 | 0.00 | 49 | 1011.3 |
| 20260507103607 | 52 | 148 | 4.0 | 11.0 | 0.00 | 0.09 | 0.00 | 55 | 1011.2 |
| 20260507103328 | 52 | 156 | 4.0 | 11.0 | 0.00 | 0.09 | 0.00 | 59 | 1011.2 |
| 20260507103007 | 51 | 147 | 4.0 | 11.0 | 0.00 | 0.09 | 0.00 | 59 | 1011.1 |
| 20260507102706 | 52 | 150 | 4.0 | 11.0 | 0.00 | 0.09 | 0.00 | 57 | 1011.4 |
| 20260507102407 | 52 | 143 | 4.0 | 9.0 | 0.00 | 0.09 | 0.00 | 46 | 1011.5 |
| 20260507102106 | 52 | 142 | 4.0 | 9.0 | 0.00 | 0.09 | 0.00 | 48 | 1011.6 |
| 20260507101807 | 52 | 136 | 3.0 | 9.0 | 0.00 | 0.09 | 0.00 | 54 | 1011.5 |
| 20260507101528 | 52 | 135 | 3.0 | 7.0 | 0.00 | 0.09 | 0.00 | 50 | 1011.5 |
| 20260507101206 | 52 | 138 | 3.0 | 7.0 | 0.00 | 0.09 | 0.00 | 55 | 1011.3 |
| 20260507100927 | 52 | 139 | 3.0 | 7.0 | 0.00 | 0.09 | 0.00 | 56 | 1011.5 |
| 20260507100607 | 51 | 124 | 3.0 | 7.0 | 0.00 | 0.09 | 0.00 | 54 | 1011.4 |
| 20260507100306 | 51 | 118 | 3.0 | 7.0 | 0.00 | 0.09 | 0.00 | 54 | 1011.4 |
| 20260507100007 | 50 | 116 | 4.0 | 7.0 | 0.00 | 0.09 | 0.00 | 53 | 1011.4 |
| 20260507095707 | 51 | 129 | 3.0 | 7.0 | 0.00 | 0.09 | 0.00 | 53 | 1011.5 |
| 20260507095427 | 51 | 136 | 3.0 | 7.0 | 0.00 | 0.09 | 0.00 | 55 | 1011.3 |
| 20260507095106 | 51 | 136 | 4.0 | 7.0 | 0.00 | 0.09 | 0.00 | 52 | 1011.3 |
| 20260507094806 | 51 | 133 | 3.0 | 7.0 | 0.00 | 0.09 | 0.00 | 55 | 1011.3 |
| 20260507094507 | 51 | 139 | 3.0 | 7.0 | 0.00 | 0.09 | 0.00 | 61 | 1011.3 |
| 20260507094208 | 52 | 153 | 2.0 | 6.0 | 0.00 | 0.09 | 0.00 | 52 | 1011.3 |
| 20260507093907 | 52 | 153 | 2.0 | 6.0 | 0.00 | 0.09 | 0.00 | 52 | 1011.2 |
| 20260507093607 | 52 | 150 | 2.0 | 6.0 | 0.00 | 0.09 | 0.00 | 48 | 1011.5 |
| 20260507093328 | 52 | 159 | 2.0 | 6.0 | 0.00 | 0.09 | 0.00 | 53 | 1011.2 |
| 20260507093007 | 51 | 165 | 3.0 | 6.0 | 0.00 | 0.11 | 0.00 | 56 | 1011.2 |
| 20260507092707 | 51 | 165 | 3.0 | 6.0 | 0.00 | 0.11 | 0.00 | 52 | 1011.4 |
| 20260507092408 | 51 | 158 | 2.0 | 6.0 | 0.00 | 0.11 | 0.00 | 47 | 1011.2 |
| 20260507092107 | 52 | 148 | 2.0 | 6.0 | 0.00 | 0.11 | 0.00 | 47 | 1011.2 |
| 20260507091807 | 51 | 148 | 2.0 | 6.0 | 0.00 | 0.11 | 0.00 | 55 | 1011.3 |
| 20260507091506 | 51 | 136 | 2.0 | 6.0 | 0.00 | 0.11 | 0.00 | 52 | 1011.2 |
| 20260507091206 | 51 | 127 | 3.0 | 6.0 | 0.00 | 0.12 | 0.00 | 46 | 1011.3 |
| 20260507090907 | 50 | 120 | 3.0 | 6.0 | 0.00 | 0.12 | 0.00 | 48 | 1011.3 |
| 20260507090607 | 50 | 119 | 3.0 | 6.0 | 0.00 | 0.12 | 0.00 | 50 | 1011.3 |
| 20260507090328 | 51 | 120 | 3.0 | 6.0 | 0.00 | 0.12 | 0.00 | 55 | 1011.4 |
| 20260507090028 | 51 | 134 | 2.0 | 4.0 | 0.00 | 0.12 | 0.00 | 52 | 1011.3 |
| 20260507085707 | 50 | 137 | 2.0 | 4.0 | 0.00 | 0.12 | 0.00 | 54 | 1011.2 |
| 20260507085427 | 50 | 136 | 2.0 | 4.0 | 0.00 | 0.13 | 0.00 | 50 | 1011.2 |
| 20260507085106 | 50 | 136 | 2.0 | 4.0 | 0.00 | 0.13 | 0.00 | 53 | 1011.1 |
| 20260507084806 | 50 | 129 | 2.0 | 4.0 | 0.00 | 0.13 | 0.00 | 56 | 1010.9 |
| 20260507084506 | 50 | 129 | 2.0 | 4.0 | 0.00 | 0.13 | 0.00 | 55 | 1011.1 |
| 20260507084206 | 50 | 124 | 2.0 | 4.0 | 0.00 | 0.13 | 0.00 | 53 | 1011.0 |
| 20260507083907 | 50 | 126 | 2.0 | 4.0 | 0.00 | 0.13 | 0.00 | 56 | 1011.2 |
| 20260507083606 | 50 | 131 | 1.0 | 4.0 | 0.00 | 0.13 | 0.00 | 53 | 1011.0 |
| 20260507083306 | 50 | 137 | 1.0 | 4.0 | 0.00 | 0.13 | 0.00 | 55 | 1011.0 |
| 20260507083007 | 50 | 135 | 1.0 | 4.0 | 0.00 | 0.13 | 0.00 | 54 | 1010.9 |
| 20260507082727 | 51 | 132 | 1.0 | 4.0 | 0.00 | 0.13 | 0.00 | 56 | 1011.2 |
| 20260507082407 | 51 | 130 | 1.0 | 4.0 | 0.00 | 0.13 | 0.00 | 54 | 1010.9 |
| 20260507082107 | 50 | 121 | 1.0 | 4.0 | 0.00 | 0.13 | 0.00 | 58 | 1011.0 |
| 20260507081807 | 50 | 114 | 2.0 | 4.0 | 0.00 | 0.13 | 0.00 | 54 | 1011.1 |
| 20260507081506 | 49 | 114 | 2.0 | 4.0 | 0.00 | 0.13 | 0.00 | 59 | 1011.0 |
| 20260507081206 | 49 | 116 | 2.0 | 4.0 | 0.00 | 0.13 | 0.00 | 60 | 1011.0 |
| 20260507080907 | 49 | 121 | 1.0 | 4.0 | 0.00 | 0.14 | 0.00 | 58 | 1010.9 |
| 20260507080606 | 49 | 136 | 1.0 | 4.0 | 0.00 | 0.14 | 0.00 | 59 | 1010.9 |
| 20260507080306 | 49 | 144 | 1.0 | 2.0 | 0.00 | 0.14 | 0.00 | 56 | 1010.8 |
| 20260507080008 | 49 | 144 | 1.0 | 2.0 | 0.00 | 0.15 | 0.00 | 55 | 1010.7 |
| 20260507075707 | 49 | 149 | 1.0 | 2.0 | 0.00 | 0.15 | 0.00 | 53 | 1010.9 |
| 20260507075406 | 49 | 155 | 1.0 | 4.0 | 0.00 | 0.15 | 0.00 | 53 | 1010.9 |
| 20260507075127 | 49 | 161 | 1.0 | 4.0 | 0.00 | 0.17 | 0.00 | 56 | 1010.9 |
| 20260507074827 | 49 | 151 | 1.0 | 4.0 | 0.00 | 0.17 | 0.00 | 54 | 1010.9 |
| 20260507074506 | 48 | 131 | 1.0 | 4.0 | 0.00 | 0.18 | 0.00 | 55 | 1010.9 |
| 20260507074207 | 48 | 116 | 2.0 | 4.0 | 0.00 | 0.19 | 0.00 | 57 | 1010.8 |
| 20260507073907 | 47 | 111 | 2.0 | 6.0 | 0.00 | 0.20 | 0.00 | 58 | 1010.8 |
| 20260507073607 | 47 | 108 | 3.0 | 6.0 | 0.00 | 0.20 | 0.00 | 63 | 1010.7 |
| 20260507073306 | 46 | 109 | 3.0 | 6.0 | 0.00 | 0.21 | 0.00 | 55 | 1010.7 |
| 20260507073007 | 47 | 114 | 3.0 | 6.0 | 0.00 | 0.22 | 0.00 | 52 | 1010.7 |
| 20260507072707 | 46 | 117 | 3.0 | 6.0 | 0.00 | 0.22 | 0.00 | 57 | 1010.8 |
| 20260507072428 | 46 | 119 | 3.0 | 6.0 | 0.00 | 0.24 | 0.00 | 59 | 1010.7 |
| 20260507072107 | 46 | 112 | 2.0 | 4.0 | 0.00 | 0.25 | 0.00 | 57 | 1010.9 |
| 20260507071806 | 46 | 110 | 2.0 | 4.0 | 0.00 | 0.25 | 0.00 | 52 | 1010.8 |
| 20260507071527 | 46 | 111 | 2.0 | 4.0 | 0.00 | 0.25 | 0.00 | 54 | 1010.7 |
| 20260507071206 | 47 | 116 | 2.0 | 4.0 | 0.00 | 0.25 | 0.00 | 56 | 1010.7 |
| 20260507070906 | 47 | 117 | 2.0 | 4.0 | 0.00 | 0.26 | 0.00 | 54 | 1010.6 |
| 20260507070607 | 47 | 109 | 2.0 | 4.0 | 0.00 | 0.26 | 0.00 | 58 | 1010.7 |
| 20260507070306 | 47 | 110 | 1.0 | 4.0 | 0.00 | 0.27 | 0.00 | 53 | 1010.9 |
| 20260507070010 | 48 | 109 | 1.0 | 4.0 | 0.00 | 0.27 | 0.00 | 54 | 1010.7 |
| 20260507065707 | 48 | 126 | 0.0 | 2.0 | 0.00 | 0.27 | 0.00 | 53 | 1010.6 |
| 20260507065406 | 49 | 117 | 0.0 | 2.0 | 0.00 | 0.27 | 0.00 | 51 | 1010.7 |
| 20260507065107 | 49 | 99 | 0.0 | 2.0 | 0.00 | 0.27 | 0.00 | 52 | 1010.8 |
| 20260507064806 | 48 | 92 | 1.0 | 2.0 | 0.00 | 0.27 | 0.00 | 58 | 1010.7 |
| 20260507064506 | 48 | 91 | 1.0 | 2.0 | 0.00 | 0.27 | 0.00 | 57 | 1010.7 |
| 20260507064206 | 48 | 92 | 1.0 | 2.0 | 0.00 | 0.27 | 0.00 | 55 | 1010.7 |
| 20260507063906 | 48 | 86 | 1.0 | 2.0 | 0.00 | 0.27 | 0.00 | 59 | 1010.7 |
| 20260507063610 | 48 | 79 | 1.0 | 2.0 | 0.00 | 0.27 | 0.00 | 58 | 1010.7 |
| 20260507063307 | 48 | 72 | 0.0 | 2.0 | 0.00 | 0.27 | 0.00 | 61 | 1010.7 |
| 20260507063027 | 48 | 70 | 0.0 | 2.0 | 0.00 | 0.27 | 0.00 | 59 | 1010.7 |
| 20260507062728 | 47 | 67 | 0.0 | 2.0 | 0.00 | 0.27 | 0.00 | 63 | 1010.6 |
| 20260507062427 | 47 | 0 | 0.0 | 2.0 | 0.00 | 0.27 | 0.00 | 60 | 1010.9 |
| 20260507062106 | 47 | 73 | 0.0 | 2.0 | 0.00 | 0.27 | 0.00 | 59 | 1010.7 |
| 20260507061806 | 46 | 50 | 0.0 | 2.0 | 0.00 | 0.27 | 0.00 | 60 | 1010.7 |
| 20260507061506 | 46 | 16 | 0.0 | 2.0 | 0.00 | 0.27 | 0.00 | 60 | 1010.7 |
| 20260507061206 | 44 | 0 | 0.0 | 2.0 | 0.00 | 0.27 | 0.00 | 65 | 1010.6 |
| 20260507060907 | 43 | 0 | 0.0 | 2.0 | 0.00 | 0.28 | 0.00 | 65 | 1010.6 |
| 20260507060606 | 45 | 0 | 0.0 | 2.0 | 0.00 | 0.30 | 0.00 | 62 | 1010.7 |
| 20260507060306 | 44 | 0 | 0.0 | 2.0 | 0.00 | 0.31 | 0.00 | 64 | 1010.5 |
| 20260507060006 | 43 | 0 | 0.0 | 2.0 | 0.00 | 0.32 | 0.00 | 64 | 1010.6 |
| 20260507055727 | 43 | 0 | 0.0 | 2.0 | 0.00 | 0.34 | 0.00 | 63 | 1010.6 |
| 20260507055406 | 43 | 0 | 0.0 | 0.0 | 0.00 | 0.35 | 0.00 | 64 | 1010.7 |
| 20260507055106 | 43 | 0 | 0.0 | 0.0 | 0.00 | 0.35 | 0.00 | 61 | 1010.6 |
| 20260507054806 | 42 | 0 | 0.0 | 0.0 | 0.00 | 0.38 | 0.00 | 62 | 1010.6 |
| 20260507054507 | 40 | 0 | 0.0 | 0.0 | 0.00 | 0.39 | 0.00 | 65 | 1010.5 |
| 20260507054206 | 38 | 0 | 0.0 | 0.0 | 0.00 | 0.40 | 0.00 | 67 | 1010.4 |
| 20260507053907 | 37 | 0 | 0.0 | 2.0 | 0.00 | 0.41 | 0.00 | 69 | 1010.6 |
| 20260507053606 | 35 | 337 | 0.0 | 2.0 | 0.00 | 0.43 | 0.00 | 72 | 1010.4 |
| 20260507053306 | 35 | 337 | 0.0 | 2.0 | 0.00 | 0.44 | 0.00 | 73 | 1010.4 |
| 20260507053006 | 35 | 337 | 0.0 | 2.0 | 0.00 | 0.44 | 0.00 | 73 | 1010.2 |
| 20260507052727 | 36 | 337 | 1.0 | 2.0 | 0.00 | 0.45 | 0.00 | 71 | 1010.4 |
| 20260507052406 | 35 | 337 | 0.0 | 2.0 | 0.00 | 0.45 | 0.00 | 73 | 1010.3 |
| 20260507052106 | 34 | 337 | 0.0 | 2.0 | 0.00 | 0.46 | 0.00 | 77 | 1010.3 |
| 20260507051806 | 34 | 337 | 0.0 | 2.0 | 0.00 | 0.46 | 0.00 | 78 | 1010.3 |
| 20260507051506 | 34 | 340 | 0.0 | 2.0 | 0.00 | 0.47 | 0.00 | 79 | 1010.3 |
| 20260507051207 | 34 | 344 | 0.0 | 2.0 | 0.00 | 0.48 | 0.00 | 78 | 1010.1 |
| 20260507050927 | 34 | 344 | 0.0 | 2.0 | 0.00 | 0.48 | 0.00 | 79 | 1010.1 |
| 20260507050606 | 34 | 0 | 0.0 | 2.0 | 0.00 | 0.48 | 0.00 | 78 | 1010.3 |
| 20260507050307 | 35 | 352 | 0.0 | 2.0 | 0.00 | 0.48 | 0.00 | 77 | 1010.2 |
| 20260507050007 | 35 | 334 | 0.0 | 2.0 | 0.00 | 0.48 | 0.00 | 74 | 1010.1 |
| 20260507045707 | 35 | 331 | 0.0 | 2.0 | 0.00 | 0.48 | 0.00 | 74 | 1010.2 |
| 20260507045427 | 35 | 331 | 0.0 | 2.0 | 0.00 | 0.48 | 0.00 | 73 | 1010.2 |
| 20260507045106 | 34 | 356 | 0.0 | 2.0 | 0.00 | 0.48 | 0.00 | 77 | 1009.8 |
| 20260507044806 | 34 | 1 | 0.0 | 2.0 | 0.00 | 0.50 | 0.00 | 79 | 1010.1 |
| 20260507044507 | 34 | 7 | 0.0 | 2.0 | 0.00 | 0.50 | 0.00 | 79 | 1010.1 |
| 20260507044206 | 33 | 355 | 0.0 | 2.0 | 0.00 | 0.50 | 0.00 | 79 | 1010.1 |
| 20260507043907 | 33 | 71 | 0.0 | 2.0 | 0.00 | 0.50 | 0.00 | 81 | 1010.1 |
| 20260507043606 | 33 | 83 | 0.0 | 2.0 | 0.00 | 0.50 | 0.00 | 80 | 1010.0 |
| 20260507043306 | 33 | 53 | 0.0 | 2.0 | 0.00 | 0.50 | 0.00 | 80 | 1009.8 |
| 20260507043006 | 33 | 19 | 0.0 | 2.0 | 0.00 | 0.50 | 0.00 | 80 | 1009.8 |
| 20260507042706 | 33 | 2 | 0.0 | 2.0 | 0.00 | 0.50 | 0.00 | 81 | 1009.8 |
| 20260507042407 | 33 | 358 | 0.0 | 2.0 | 0.00 | 0.50 | 0.00 | 81 | 1009.6 |
| 20260507042107 | 34 | 348 | 1.0 | 4.0 | 0.00 | 0.50 | 0.00 | 80 | 1009.6 |
| 20260507041827 | 34 | 348 | 1.0 | 4.0 | 0.00 | 0.50 | 0.00 | 79 | 1009.6 |
| 20260507041507 | 34 | 347 | 2.0 | 4.0 | 0.00 | 0.50 | 0.00 | 79 | 1009.6 |
| 20260507041206 | 34 | 349 | 1.0 | 4.0 | 0.00 | 0.50 | 0.00 | 77 | 1009.6 |
| 20260507040906 | 34 | 344 | 1.0 | 2.0 | 0.00 | 0.50 | 0.00 | 77 | 1009.5 |
| 20260507040606 | 35 | 344 | 1.0 | 2.0 | 0.00 | 0.50 | 0.00 | 76 | 1009.6 |
| 20260507040307 | 35 | 339 | 1.0 | 2.0 | 0.00 | 0.50 | 0.00 | 76 | 1009.6 |
| 20260507040006 | 35 | 339 | 1.0 | 2.0 | 0.00 | 0.50 | 0.00 | 76 | 1009.8 |
| 20260507035707 | 36 | 339 | 1.0 | 2.0 | 0.00 | 0.50 | 0.00 | 74 | 1009.5 |
| 20260507035406 | 36 | 337 | 2.0 | 4.0 | 0.00 | 0.50 | 0.00 | 72 | 1009.6 |
| 20260507035106 | 36 | 337 | 2.0 | 4.0 | 0.00 | 0.50 | 0.00 | 73 | 1009.7 |
| 20260507034827 | 36 | 337 | 2.0 | 4.0 | 0.00 | 0.50 | 0.00 | 72 | 1009.6 |
| 20260507034506 | 36 | 334 | 2.0 | 4.0 | 0.00 | 0.50 | 0.00 | 72 | 1009.6 |
| 20260507034206 | 36 | 338 | 2.0 | 4.0 | 0.00 | 0.50 | 0.00 | 73 | 1009.6 |
| 20260507033906 | 35 | 338 | 2.0 | 4.0 | 0.00 | 0.50 | 0.00 | 72 | 1009.5 |
| 20260507033606 | 35 | 340 | 2.0 | 4.0 | 0.00 | 0.50 | 0.00 | 76 | 1009.7 |
| 20260507033328 | 36 | 339 | 2.0 | 4.0 | 0.00 | 0.50 | 0.00 | 75 | 1009.6 |
| 20260507033027 | 36 | 337 | 2.0 | 4.0 | 0.00 | 0.50 | 0.00 | 74 | 1009.8 |
| 20260507032706 | 35 | 337 | 2.0 | 4.0 | 0.00 | 0.50 | 0.00 | 74 | 1009.7 |
| 20260507032406 | 35 | 342 | 1.0 | 4.0 | 0.00 | 0.50 | 0.00 | 75 | 1009.8 |
| 20260507032107 | 35 | 346 | 1.0 | 4.0 | 0.00 | 0.50 | 0.00 | 76 | 1009.7 |
| 20260507031827 | 35 | 350 | 1.0 | 4.0 | 0.00 | 0.50 | 0.00 | 76 | 1009.7 |
| 20260507031527 | 34 | 347 | 1.0 | 4.0 | 0.00 | 0.50 | 0.00 | 78 | 1009.7 |
| 20260507031206 | 34 | 347 | 1.0 | 4.0 | 0.00 | 0.50 | 0.00 | 78 | 1009.7 |
| 20260507030906 | 34 | 348 | 1.0 | 4.0 | 0.00 | 0.50 | 0.00 | 79 | 1009.7 |
| 20260507030606 | 33 | 3 | 0.0 | 4.0 | 0.00 | 0.50 | 0.00 | 81 | 1009.6 |
| 20260507030327 | 34 | 358 | 0.0 | 2.0 | 0.00 | 0.50 | 0.00 | 81 | 1009.6 |
| 20260507030027 | 34 | 353 | 0.0 | 2.0 | 0.00 | 0.50 | 0.00 | 81 | 1009.6 |
| 20260507025706 | 34 | 346 | 1.0 | 2.0 | 0.00 | 0.50 | 0.00 | 81 | 1009.5 |
| 20260507025407 | 34 | 347 | 1.0 | 2.0 | 0.00 | 0.50 | 0.00 | 81 | 1009.8 |
| 20260507025106 | 35 | 342 | 1.0 | 2.0 | 0.00 | 0.50 | 0.00 | 79 | 1009.7 |
| 20260507024806 | 35 | 346 | 0.0 | 2.0 | 0.00 | 0.50 | 0.00 | 79 | 1009.6 |
| 20260507024506 | 35 | 344 | 0.0 | 2.0 | 0.00 | 0.50 | 0.00 | 79 | 1009.6 |
| 20260507024206 | 35 | 342 | 0.0 | 2.0 | 0.00 | 0.50 | 0.00 | 78 | 1009.7 |
| 20260507023936 | 35 | 339 | 1.0 | 4.0 | 0.00 | 0.50 | 0.00 | 78 | 1009.5 |
| 20260507023606 | 36 | 339 | 1.0 | 4.0 | 0.00 | 0.50 | 0.00 | 77 | 1009.6 |
| 20260507023306 | 36 | 338 | 1.0 | 4.0 | 0.00 | 0.50 | 0.00 | 76 | 1009.6 |
| 20260507023027 | 35 | 337 | 1.0 | 4.0 | 0.00 | 0.50 | 0.00 | 78 | 1009.6 |
| 20260507022727 | 36 | 339 | 1.0 | 2.0 | 0.00 | 0.50 | 0.00 | 77 | 1009.6 |
| 20260507022406 | 35 | 341 | 1.0 | 2.0 | 0.00 | 0.50 | 0.00 | 76 | 1009.6 |
| 20260507022106 | 35 | 341 | 1.0 | 4.0 | 0.00 | 0.50 | 0.00 | 79 | 1009.4 |
| 20260507021806 | 36 | 338 | 1.0 | 4.0 | 0.00 | 0.50 | 0.00 | 78 | 1009.5 |
| 20260507021506 | 36 | 337 | 2.0 | 4.0 | 0.00 | 0.50 | 0.00 | 75 | 1009.6 |
| 20260507021206 | 36 | 339 | 2.0 | 4.0 | 0.00 | 0.50 | 0.00 | 76 | 1009.5 |
| 20260507020906 | 35 | 340 | 1.0 | 4.0 | 0.00 | 0.50 | 0.00 | 78 | 1009.7 |
| 20260507020606 | 35 | 344 | 1.0 | 2.0 | 0.00 | 0.50 | 0.00 | 77 | 1009.5 |
| 20260507020306 | 36 | 349 | 0.0 | 2.0 | 0.00 | 0.50 | 0.00 | 78 | 1009.6 |
| 20260507020027 | 36 | 348 | 0.0 | 2.0 | 0.00 | 0.50 | 0.00 | 77 | 1009.6 |
| 20260507015706 | 35 | 345 | 0.0 | 2.0 | 0.00 | 0.50 | 0.00 | 75 | 1009.6 |
| 20260507015406 | 35 | 341 | 1.0 | 2.0 | 0.00 | 0.50 | 0.00 | 78 | 1009.5 |
| 20260507015106 | 35 | 338 | 1.0 | 2.0 | 0.00 | 0.50 | 0.00 | 78 | 1009.6 |
| 20260507014806 | 35 | 348 | 1.0 | 2.0 | 0.00 | 0.50 | 0.00 | 78 | 1009.6 |
| 20260507014506 | 35 | 20 | 0.0 | 2.0 | 0.00 | 0.50 | 0.00 | 78 | 1009.6 |
| 20260507014207 | 35 | 59 | 0.0 | 2.0 | 0.00 | 0.50 | 0.00 | 78 | 1009.5 |
| 20260507013927 | 35 | 55 | 0.0 | 2.0 | 0.00 | 0.50 | 0.00 | 78 | 1009.5 |
| 20260507013606 | 35 | 46 | 0.0 | 2.0 | 0.00 | 0.50 | 0.00 | 78 | 1009.6 |
| 20260507013327 | 35 | 15 | 0.0 | 2.0 | 0.00 | 0.50 | 0.00 | 78 | 1009.6 |
| 20260507013006 | 35 | 350 | 1.0 | 2.0 | 0.00 | 0.50 | 0.00 | 77 | 1009.5 |
| 20260507012706 | 36 | 339 | 1.0 | 2.0 | 0.00 | 0.50 | 0.00 | 77 | 1009.7 |
| 20260507012406 | 36 | 337 | 1.0 | 4.0 | 0.00 | 0.50 | 0.00 | 76 | 1009.5 |
| 20260507012106 | 36 | 337 | 1.0 | 4.0 | 0.00 | 0.50 | 0.00 | 75 | 1009.5 |
| 20260507011827 | 37 | 339 | 1.0 | 4.0 | 0.00 | 0.50 | 0.00 | 73 | 1009.5 |
| 20260507011506 | 36 | 341 | 1.0 | 4.0 | 0.00 | 0.50 | 0.00 | 73 | 1009.4 |
| 20260507010606 | 37 | 339 | 2.0 | 4.0 | 0.00 | 0.50 | 0.00 | 73 | 1009.5 |
| 20260507010306 | 37 | 332 | 2.0 | 4.0 | 0.00 | 0.50 | 0.00 | 74 | 1009.6 |
| 20260507010006 | 37 | 329 | 2.0 | 4.0 | 0.00 | 0.50 | 0.00 | 74 | 1009.7 |
| 20260507005705 | 36 | 320 | 1.0 | 2.0 | 0.00 | 0.50 | 0.00 | 76 | 1009.5 |
| 20260507005406 | 36 | 319 | 0.0 | 2.0 | 0.00 | 0.50 | 0.00 | 78 | 1009.4 |
| 20260507005106 | 34 | 0 | 0.0 | 0.0 | 0.00 | 0.50 | 0.00 | 81 | 1009.4 |
| 20260507004806 | 34 | 0 | 0.0 | 2.0 | 0.00 | 0.50 | 0.00 | 83 | 1009.5 |
| 20260507004506 | 34 | 0 | 0.0 | 2.0 | 0.00 | 0.50 | 0.00 | 83 | 1009.7 |
| 20260507004206 | 34 | 0 | 0.0 | 2.0 | 0.00 | 0.50 | 0.00 | 82 | 1009.6 |
| 20260507003905 | 35 | 0 | 0.0 | 2.0 | 0.00 | 0.50 | 0.00 | 83 | 1009.5 |
| 20260507003606 | 35 | 22 | 0.0 | 2.0 | 0.00 | 0.50 | 0.00 | 83 | 1009.6 |
| 20260507003306 | 35 | 27 | 0.0 | 2.0 | 0.00 | 0.50 | 0.00 | 82 | 1009.6 |
| 20260507003006 | 35 | 25 | 0.0 | 2.0 | 0.00 | 0.50 | 0.00 | 82 | 1009.6 |
| 20260507002706 | 35 | 21 | 0.0 | 2.0 | 0.00 | 0.50 | 0.00 | 82 | 1009.6 |
| 20260507002406 | 35 | 360 | 0.0 | 2.0 | 0.00 | 0.50 | 0.00 | 82 | 1009.7 |
| 20260507002106 | 35 | 360 | 0.0 | 2.0 | 0.00 | 0.50 | 0.00 | 81 | 1009.6 |
| 20260507001827 | 35 | 360 | 0.0 | 2.0 | 0.00 | 0.50 | 0.00 | 81 | 1009.5 |
| 20260507001506 | 35 | 0 | 0.0 | 2.0 | 0.00 | 0.50 | 0.00 | 80 | 1009.6 |
| 20260507001206 | 35 | 0 | 0.0 | 2.0 | 0.00 | 0.50 | 0.00 | 80 | 1009.4 |
| 20260507000905 | 35 | 0 | 0.0 | 2.0 | 0.00 | 0.50 | 0.00 | 79 | 1009.7 |
| 20260507000606 | 35 | 360 | 0.0 | 2.0 | 0.00 | 0.50 | 0.00 | 80 | 1009.5 |
| 20260507000306 | 35 | 360 | 0.0 | 2.0 | 0.00 | 0.50 | 0.00 | 80 | 1009.5 |
| 20260507000006 | 35 | 359 | 0.0 | 2.0 | 0.00 | 0.50 | 0.00 | 80 | 1009.7 |
| 20260506235706 | 35 | 358 | 0.0 | 2.0 | 0.00 | 0.50 | 0.00 | 81 | 1009.6 |
| 20260506235406 | 35 | 358 | 0.0 | 2.0 | 0.00 | 0.50 | 0.00 | 81 | 1009.6 |
| 20260506235106 | 35 | 0 | 0.0 | 2.0 | 0.00 | 0.50 | 0.00 | 80 | 1009.7 |
| 20260506234806 | 35 | 0 | 0.0 | 2.0 | 0.00 | 0.50 | 0.00 | 80 | 1009.6 |
| 20260506234506 | 36 | 0 | 0.0 | 2.0 | 0.00 | 0.50 | 0.00 | 79 | 1009.4 |
| 20260506234206 | 36 | 354 | 0.0 | 2.0 | 0.00 | 0.50 | 0.00 | 78 | 1009.6 |
| 20260506233906 | 36 | 346 | 0.0 | 2.0 | 0.00 | 0.50 | 0.00 | 76 | 1009.6 |
| 20260506233606 | 36 | 346 | 0.0 | 2.0 | 0.00 | 0.50 | 0.00 | 76 | 1009.5 |
| 20260506233306 | 36 | 360 | 0.0 | 2.0 | 0.00 | 0.50 | 0.00 | 77 | 1009.4 |
| 20260506233006 | 36 | 0 | 0.0 | 2.0 | 0.00 | 0.50 | 0.00 | 77 | 1009.5 |
| 20260506232707 | 36 | 355 | 0.0 | 2.0 | 0.00 | 0.50 | 0.00 | 78 | 1009.4 |
| 20260506232406 | 36 | 350 | 0.0 | 2.0 | 0.00 | 0.50 | 0.00 | 78 | 1009.5 |
| 20260506232106 | 36 | 346 | 1.0 | 2.0 | 0.00 | 0.50 | 0.00 | 80 | 1009.6 |
| 20260506231806 | 37 | 340 | 1.0 | 4.0 | 0.00 | 0.50 | 0.00 | 80 | 1009.6 |
| 20260506231506 | 37 | 337 | 1.0 | 4.0 | 0.00 | 0.50 | 0.00 | 79 | 1009.7 |
| 20260506231206 | 37 | 337 | 1.0 | 4.0 | 0.00 | 0.50 | 0.00 | 78 | 1009.6 |
| 20260506230905 | 37 | 337 | 0.0 | 2.0 | 0.00 | 0.50 | 0.00 | 79 | 1009.5 |
| 20260506230606 | 37 | 337 | 0.0 | 2.0 | 0.00 | 0.50 | 0.00 | 78 | 1009.7 |
| 20260506230305 | 37 | 0 | 0.0 | 2.0 | 0.00 | 0.50 | 0.00 | 78 | 1009.8 |
| 20260506230007 | 36 | 0 | 0.0 | 2.0 | 0.00 | 0.50 | 0.00 | 78 | 1009.6 |
| 20260506225726 | 36 | 0 | 0.0 | 2.0 | 0.00 | 0.50 | 0.00 | 78 | 1009.7 |
| 20260506225406 | 37 | 0 | 0.0 | 2.0 | 0.00 | 0.50 | 0.00 | 78 | 1009.8 |
| 20260506225106 | 37 | 331 | 0.0 | 2.0 | 0.00 | 0.50 | 0.00 | 77 | 1009.7 |
| 20260506224806 | 37 | 334 | 0.0 | 2.0 | 0.00 | 0.50 | 0.00 | 76 | 1009.9 |
| 20260506224526 | 37 | 334 | 0.0 | 2.0 | 0.00 | 0.50 | 0.00 | 76 | 1009.6 |
| 20260506224206 | 37 | 343 | 0.0 | 2.0 | 0.00 | 0.50 | 0.00 | 76 | 1009.9 |
| 20260506223906 | 37 | 342 | 0.0 | 4.0 | 0.00 | 0.50 | 0.00 | 77 | 1009.7 |
| 20260506223606 | 37 | 342 | 1.0 | 4.0 | 0.00 | 0.50 | 0.00 | 78 | 1009.7 |
| 20260506223305 | 37 | 338 | 1.0 | 4.0 | 0.00 | 0.50 | 0.00 | 77 | 1009.9 |
| 20260506223006 | 37 | 338 | 1.0 | 4.0 | 0.00 | 0.50 | 0.00 | 78 | 1009.8 |
| 20260506222707 | 38 | 337 | 1.0 | 4.0 | 0.00 | 0.50 | 0.00 | 77 | 1009.7 |